Regional Weather Roundup
Issued by NWS

Home | Current Version | Previous Version | Graphics & Text | Print | Product List | Glossary On
Versions: 1 2 3 4 5 6 7 8 9 10 11 12 13 14 15 16 17 18 19 20 21 22 23 24 25 26 27 28 29 30 31 32 33 34 35 36 37 38 39 40 41 42 43 44 45 46 47 48 49 50
000
ASUS43 KFSD 061602
RWRSD

WEATHER ROUNDUP FOR SOUTH DAKOTA
NATIONAL WEATHER SERVICE SIOUX FALLS SD
1000 AM CST FRI MAR 06 2015

NOTE: "FAIR" INDICATES FEW OR NO CLOUDS BELOW 12,000 FEET WITH NO
SIGNIFICANT WEATHER AND/OR OBSTRUCTIONS TO VISIBILITY.


SDZ001>005-009-010-012>017-061700-
NORTHWEST AND NORTH CENTRAL SOUTH DAKOTA

CITY           SKY/WX    TMP DP  RH WIND       PRES   REMARKS
BUFFALO          N/A     42  21  43 W12       30.03R
FAITH            N/A     39  18  42 W7        30.11S
MOBRIDGE       MOSUNNY   31  18  58 W5        30.10R WCI  26
$$

SDZ012>016-024>037-041>051-057-063-072>074-061700-
SOUTHWEST AND SOUTH CENTRAL SOUTH DAKOTA

CITY           SKY/WX    TMP DP  RH WIND       PRES   REMARKS
RAPID CTY ARPT PTSUNNY   47  20  34 NW8       30.14R
PIERRE         MOSUNNY   36  19  50 NW10      30.14R
CUSTER         MOSUNNY   38  12  34 W20G29    30.14R
ELLSWORTH AFB  CLOUDY    46  20  35 W5        30.13R
PHILIP         SUNNY     41  22  46 SW6       30.15R
PINE RIDGE     MOSUNNY   40  24  53 W12       30.19R
SPEARFISH      FAIR      45  18  33 W20       30.14R
WINNER         FAIR      43  20  39 NW14      30.16R
$$

SDZ004>011-016>023-039-040-061700-
NORTHEAST SOUTH DAKOTA

CITY           SKY/WX    TMP DP  RH WIND       PRES   REMARKS
ABERDEEN       SUNNY     29  17  61 NW12      30.14R WCI  19
WATERTOWN      SUNNY     26  16  65 NW9       30.09R WCI  17
SISSETON         N/A     27  15  61 N16       30.09R WCI  15
$$

SDZ017-020-022-023-036>040-048>070-061700-
SOUTHEAST SOUTH DAKOTA

CITY           SKY/WX    TMP DP  RH WIND       PRES   REMARKS
SIOUX FALLS    MOSUNNY   38  20  48 W8        30.11R
HURON          SUNNY     32  19  58 NW12      30.14R WCI  23
MITCHELL       SUNNY     42  21  43 NW16G25   30.13R
YANKTON        SUNNY     43  21  42 SW8       30.14S
$$

ABBREVIATIONS USED IN REMARKS
   TC - TEMPERATURE IN CELSIUS
  WCI - WIND CHILL INDEX
   HX - HEAT INDEX
  VSB - VISIBILITY




USA.gov is the U.S. government's official web portal to all federal, state and local government web resources and services.